Regional Weather Roundup
Issued by NWS

Home | Current Version | Previous Version | Graphics & Text | Print | Product List | Glossary On
Versions: 1 2 3 4 5 6 7 8 9 10 11 12 13 14 15 16 17 18 19 20 21 22 23 24 25 26 27 28 29 30 31 32 33 34 35 36 37 38 39 40 41 42 43 44 45 46 47 48 49 50
000
ASUS43 KMPX 300010
RWRMN
WEATHER ROUNDUP FOR MINNESOTA
NATIONAL WEATHER SERVICE TWIN CITIES/CHANHASSEN MN
700 PM CDT SUN MAR 29 2015


NOTE: "FAIR" INDICATES FEW OR NO CLOUDS BELOW 12,000 FEET WITH NO
SIGNIFICANT WEATHER AND/OR OBSTRUCTIONS TO VISIBILITY. N/A MEANS
CURRENT SKY AND/OR WEATHER CONDITIONS ARE NOT AVAILABLE.

MNZ060>063-068>070-300100-
   Twin Cities Metro

CITY           SKY/WX    TMP DP  RH WIND       PRES   REMARKS
TWIN CITIES    PTCLDY    50  26  39 NW22G32   29.86R
6HR MIN TEMP:  40; 6HR MAX TEMP:  53; 6HR PCP: TRACE;

ST PAUL        CLEAR     51  25  36 NW31G40   29.86R
CRYSTAL        CLEAR     51  25  36 NW24G37   29.85R
BLAINE         PTCLDY    52  27  37 NW23G37   29.85R
LAKEVILLE      CLEAR     46  28  49 NW18G26   29.86R
EDEN PRAIRIE   PTCLDY    51  26  37 NW18G29   29.86R
6HR MIN TEMP:  43; 6HR MAX TEMP:  54;

SOUTH ST PAUL  PTCLDY    52  26  37 NW18G25   29.85R
LAKE ELMO      FAIR      50  28  43 NW18G29   29.84R
$$
MNZ001>005-007-008-013>017-022>024-027-028-300100-
   Northwest Minnesota

CITY           SKY/WX    TMP DP  RH WIND       PRES   REMARKS
BEMIDJI        MOCLDY    46  27  48 NW18G25   29.85R
HALLOCK        PTCLDY    52  34  50 NW10      29.85S
ROSEAU         CLEAR     48  30  49 NW13      29.82S
WARROAD        PTCLDY    46  28  49 W15G24    29.82R
THIEF RVR FALL CLEAR     48  30  49 NW12      29.87S
CROOKSTON      PTCLDY    50  27  40 NW16G25   29.89R
FOSSTON        PTCLDY    46  28  49 NW8       29.89R
DETROIT LAKES  PTCLDY    46  30  53 NW10      29.91R
MOORHEAD       MOCLDY    54  21  28 NW16      29.92S
PARK RAPIDS    CLEAR     47  22  37 NW20G31   29.87R
MAHNOMEN       FAIR      45  32  60 N9        29.89S
$$
MNZ006-009>011-018-025>026-300100-
   North Central Minnesota

CITY           SKY/WX    TMP DP  RH WIND       PRES   REMARKS
BAUDETTE       PTCLDY    45  27  49 NW9       29.79R
FLAG ISLAND    PTCLDY    43  27  52 NW13      29.78R
INTL FALLS     PTCLDY    43  26  51 NW12      29.77R
6HR MIN TEMP:  37; 6HR MAX TEMP:  45; 6HR PCP: TRACE;

WASKISH        PTCLDY    45  28  53 W5        29.82R
BIG FORK       PTCLDY    45  25  45 NW7G16    29.80R
LONGVILLE      PTCLDY    45  27  49 NW10      29.84R
GRAND RAPIDS   PTCLDY    45  23  42 NW21G29   29.80R
CRANE LAKE     CLOUDY    41  27  56 W5        29.75R
ORR            MOCLDY    41  25  52 NW14G22   29.74R
COOK           CLOUDY    41  27  56 W15G22    29.77R
WALKER         FAIR      46  26  46 NW16      29.85R
$$
MNZ012-019>021-037-300100-
   Northeast Minnesota

CITY           SKY/WX    TMP DP  RH WIND       PRES   REMARKS
DULUTH         PTCLDY    44  25  47 NW18G28   29.74R
6HR MIN TEMP:  38; 6HR MAX TEMP:  44; 6HR PCP:  0.01;

ELY            CLOUDY    39  27  60 NW12G20   29.71R
HIBBING        MOCLDY    42  25  50 NW22G31   29.77R
EVELETH        PTCLDY    43  28  56 NW12G23   29.76R
DULUTH HARBOR  CLEAR     46  28  49 NW9       29.77R
TWO HARBORS    PTCLDY    45  30  57 NW10G22   29.71R
SILVER BAY     PTCLDY    43  27  52 NW12G18   29.69R
GRAND MARAIS     N/A     40  28  62 NW8G24    29.64R
G MARAIS ARPRT FLURRIES  34  27  75 NW12G20   29.62R WCI  25
$$
MNZ029>031-032-039>041-046>048-054>057-064-300100-
   West Central Minnesota

CITY           SKY/WX    TMP DP  RH WIND       PRES   REMARKS
FERGUS FALLS   PTCLDY    52  27  37 NW12      29.94R
WHEATON        PTCLDY    52  25  35 W16       29.97R
MORRIS         CLOUDY    54  28  37 NW20      29.94R
ALEXANDRIA     PTCLDY    49  24  37 NW20G30   29.92R
ELBOW LAKE     CLOUDY    49  27  42 NW15      29.93R
WADENA         MOCLDY    48  25  40 NW21G31   29.89R
GLENWOOD       CLEAR     48  27  43 NW20G25   29.93R
APPLETON       PTCLDY    55  27  33 NW18      29.96R
BENSON         MOCLDY    50  25  37 N15       29.95R
ORTONVILLE     CLEAR     54  21  28 NW17G23   29.97R
MADISON        CLEAR     54  19  26 NW22G32   29.98R
WILLMAR        FAIR      52  28  40 NW20G26   29.95R
$$
MNZ033>034-036-042>043-049>051-058-059-300100-
   Central Minnesota

CITY           SKY/WX    TMP DP  RH WIND       PRES   REMARKS
ST CLOUD       PTCLDY    50  27  40 NW14G25   29.87R
6HR MIN TEMP:  45; 6HR MAX TEMP:  52;

SAUK CENTRE    FAIR      49  26  40 NW20G30   29.91R
PAYNESVILLE    CLEAR     46  30  52 W13       29.91R
AITKIN         PTCLDY    48  25  40 NW16G28   29.82R
PINE RIVER     PTCLDY    46  28  49 NW13G21   29.88R
BRAINERD       PTCLDY    48  24  39 NW23G31   29.85R
STAPLES        CLEAR     46  23  39 NW23      29.88R
LONG PRAIRIE   FAIR      46  25  42 W22G33    29.90R
LITTLE FALLS   CLEAR     50  25  37 NW13G22   29.87R
LITCHFIELD     CLEAR     50  28  43 CALM      29.92R
BUFFALO        CLEAR     50  27  40 NW16G25   29.89R
MAPLE LAKE     PTCLDY    50  30  45 NW15G26   29.90R
$$
MNZ037-044-045-052-053-300100-
   East Central Minnesota

CITY           SKY/WX    TMP DP  RH WIND       PRES   REMARKS
PRINCETON      PTCLDY    50  28  43 NW20G26   29.86R
MORA           PTCLDY    45  27  49 NW16G23   29.85R
CAMBRIDGE      PTCLDY    52  30  43 NW17G25   29.82R
RUSH CITY      CLEAR     48  27  44 NW15G26   29.83R
MOOSE LAKE     PTCLDY    45  23  42 NW13G24   29.78R
HINCKLEY       FAIR      46  28  49 NW21G29   29.81R
CLOQUET        PTCLDY    45  23  42 W14G28    29.76R
MCGREGOR       PTCLDY    45  28  53 NW16G25   29.81R
$$
MNZ071>073-080-081-089-090-097-098-300100-
   Southwest Minnesota

CITY           SKY/WX    TMP DP  RH WIND       PRES   REMARKS
MONTEVIDEO     CLOUDY    55  27  33 N20G25    29.97R
GRANITE FALLS  MOCLDY    54  25  32 NW25G31   29.98R
CANBY          CLEAR     54  23  30 NW18G25   30.00R
MARSHALL       MOCLDY    54  21  28 NW29G35   29.98R
REDWOOD FALLS  PTCLDY    54  25  32 NW17G29   29.95R
OLIVIA         CLEAR     50  28  43 NW18G31   29.93R
PIPESTONE      CLEAR     54  18  24 N20G30    30.00R
WINDOM         CLEAR     54  21  28 NW25G32   29.97R
WORTHINGTON    CLEAR     54  19  26 NW24G33   30.00R
JACKSON        CLEAR     54  19  26 NW21G32   29.98R
TRACY          CLEAR     54  24  31 NW21G29   29.98R
SLAYTON        FAIR      52  17  24 NW18G30   30.00R
$$
MNZ065>067-074>077-082>085-091>093-300100-
   South Central Minnesota

CITY           SKY/WX    TMP DP  RH WIND       PRES   REMARKS
MANKATO        CLEAR     52  30  43 NW18G30   29.92R
NEW ULM        CLEAR     52  27  37 NW23      29.93R
ST JAMES       CLEAR     54  25  32 NW22G30   29.96R
FAIRMONT       CLEAR     54  21  28 NW25G33   29.94R
GLENCOE        CLEAR     50  35  55 NW16G24   29.91R
FARIBAULT      CLEAR     48  30  49 W14G24    29.89R
OWATONNA       CLEAR     48  30  49 NW22G31   29.89R
WASECA         CLEAR     50  32  50 NW20G31   29.91R
ALBERT LEA     CLEAR     52  30  43 NW17G28   29.90R
$$
MNZ078>079-086>088-094>096-300100-
   Southeast Minnesota

CITY           SKY/WX    TMP DP  RH WIND       PRES   REMARKS
ROCHESTER      CLEAR     45  29  53 NW28G35   29.85R
6HR MIN TEMP:  40; 6HR MAX TEMP:  47;

RED WING       CLEAR     52  25  35 NW16G26   29.82R
STANTON        CLEAR     49  30  47 NW17G26   29.86R
DODGE CENTER   CLEAR     46  28  49 NW23G29   29.87R
WINONA         CLEAR     52  30  43 NW15      29.81R
AUSTIN         CLEAR     48  34  57 NW18G26   29.88R
PRESTON        CLEAR     45  29  53 NW26G35   29.85R
$$
ABBREVIATIONS USED IN REMARKS
   TC - TEMPERATURES IN CELSIUS
  WCI - WIND CHILL INDEX
   HX - HEAT INDEX
  VSB - VISIBILITY
$$



USA.gov is the U.S. government's official web portal to all federal, state and local government web resources and services.